Weather History for Winston-Salem, NC

Change the Weather History Date:

Saturday, February 16, 2013

  Actual Average Record
Temperature  
Mean Temperature 36 °F -  
Max Temperature 42 °F 50 °F 82 °F (1989)
Min Temperature 28 °F 33 °F 7 °F (1991)
Degree Days  
Heating Degree Days 29    
Moisture  
Dew Point 27 °F    
Average Humidity 73    
Maximum Humidity 92    
Minimum Humidity 42    
Precipitation  
Precipitation 0.00 in - - ()
Sea Level Pressure  
Sea Level Pressure 29.94 in    
Wind  
Wind Speed 6 mph (North)    
Max Wind Speed 14 mph    
Max Gust Speed 21 mph    
Visibility 7 miles    
Events Rain , Snow    
Averages and records for this station are not official NWS values.
T = Trace of Precipitation, MM = Missing Value Source: NWS Daily Summary

Daily Weather History Graph

Daily Weather History Graph

Search for Another Location

Airport:

Trip Planner

Search our weather history database for the weather conditions in past years. The results will help you decide how hot, cold, wet, or windy it might be!

Date:

Astronomy

Feb. 16, 2013 Rise Set
Actual Time 7:06 AM EST 6:03 PM EST
Civil Twilight 6:40 AM EST 6:29 PM EST
Nautical Twilight 6:10 AM EST 6:59 PM EST
Astronomical Twilight 5:40 AM EST 7:29 PM EST
Moon 10:32 AM EST (2/16) No Moon Set
Length of Visible Light 11h 48m
Length of Day
10h 56m
Waxing Crescent, 39% of the Moon is Illuminated
Feb 16
Waxing Crescent
Feb 17
First Quarter
Feb 25
Full
Mar 4
Last Quarter
Mar 11
New

Hourly Weather History & Observations

Time (EST) Temp. Windchill Dew Point Humidity Pressure Visibility Wind Dir Wind Speed Gust Speed Precip Events Conditions
12:54 AM 42.1 °F 37.7 °F 30.9 °F 65% 29.98 in 10.0 mi North 6.9 mph - N/A   Overcast
1:54 AM 41.0 °F 36.4 °F 30.0 °F 65% 29.97 in 10.0 mi North 6.9 mph - 0.00 in Rain Light Rain
2:54 AM 39.0 °F 35.7 °F 30.9 °F 73% 29.96 in 10.0 mi North 4.6 mph - 0.00 in   Overcast
3:54 AM 37.9 °F - 30.9 °F 76% 29.96 in 10.0 mi Calm Calm - N/A   Overcast
4:54 AM 37.9 °F - 30.9 °F 76% 29.96 in 10.0 mi Calm Calm - N/A   Overcast
5:54 AM 37.9 °F 34.4 °F 30.9 °F 76% 29.96 in 10.0 mi NNW 4.6 mph - N/A   Overcast
6:14 AM 35.6 °F 29.9 °F 28.4 °F 75% 29.96 in 3.0 mi North 6.9 mph - 0.00 in Snow Light Snow
6:22 AM 35.6 °F 31.7 °F 30.2 °F 81% 29.96 in 2.5 mi North 4.6 mph - 0.00 in Snow Light Snow
6:31 AM 35.6 °F 31.7 °F 30.2 °F 81% 29.96 in 4.0 mi North 4.6 mph - 0.00 in Snow Light Snow
6:54 AM 34.0 °F 31.0 °F 30.9 °F 89% 29.96 in 6.0 mi East 3.5 mph - 0.00 in Snow Light Snow
7:54 AM 35.1 °F 32.2 °F 30.9 °F 85% 29.97 in 6.0 mi North 3.5 mph - 0.00 in Snow Light Snow
8:15 AM 35.6 °F 29.2 °F 30.2 °F 81% 29.97 in 2.5 mi North 8.1 mph - 0.00 in Snow Light Snow
8:26 AM 33.8 °F 27.0 °F 30.2 °F 87% 29.97 in 1.5 mi North 8.1 mph - 0.00 in Snow Light Snow
8:34 AM 33.8 °F 27.0 °F 30.2 °F 87% 29.97 in 1.2 mi North 8.1 mph - 0.00 in Snow Light Snow
8:50 AM 33.8 °F 29.6 °F 30.2 °F 87% 29.96 in 2.5 mi NNE 4.6 mph - 0.00 in Snow Light Snow
8:54 AM 33.1 °F 28.7 °F 30.9 °F 92% 29.97 in 3.0 mi North 4.6 mph - 0.00 in Snow Light Snow
9:54 AM 35.1 °F 31.0 °F 30.0 °F 82% 29.95 in 10.0 mi NE 4.6 mph - 0.00 in   Overcast
10:54 AM 36.0 °F 31.1 °F 30.9 °F 82% 29.94 in 9.0 mi North 5.8 mph - N/A   Overcast
11:54 AM 35.1 °F 31.0 °F 30.0 °F 82% 29.93 in 2.5 mi North 4.6 mph - 0.00 in Snow Light Snow
12:03 PM 33.8 °F 29.6 °F 30.2 °F 87% 29.91 in 1.0 mi NE 4.6 mph - 0.00 in Snow Light Snow
12:18 PM 33.8 °F - 30.2 °F 87% 29.91 in 3.0 mi Calm Calm - 0.00 in Snow Light Snow
12:54 PM 35.1 °F - 30.9 °F 85% 29.90 in 10.0 mi Calm Calm - 0.00 in   Overcast
1:54 PM 36.0 °F - 30.0 °F 79% 29.88 in 10.0 mi Calm Calm - N/A   Overcast
2:54 PM 35.1 °F 31.0 °F 28.9 °F 78% 29.85 in 8.0 mi North 4.6 mph - 0.00 in Snow Light Snow
3:54 PM 36.0 °F 27.5 °F 28.0 °F 73% 29.85 in 10.0 mi North 12.7 mph 19.6 mph N/A   Scattered Clouds
4:54 PM 36.0 °F 30.3 °F 25.0 °F 64% 29.85 in 10.0 mi North 6.9 mph - N/A   Overcast
5:54 PM 36.0 °F 28.0 °F 18.0 °F 48% 29.86 in 10.0 mi NW 11.5 mph 17.3 mph N/A   Overcast
6:54 PM 35.1 °F 27.4 °F 15.1 °F 44% 29.89 in 10.0 mi NW 10.4 mph - N/A   Overcast
7:54 PM 33.1 °F 24.4 °F 12.9 °F 43% 29.91 in 10.0 mi NNW 11.5 mph - N/A   Clear
8:54 PM 32.0 °F 23.0 °F 10.9 °F 42% 29.93 in 10.0 mi NW 11.5 mph 18.4 mph N/A   Clear
9:54 PM 30.9 °F 20.7 °F 10.9 °F 43% 29.95 in 10.0 mi NW 13.8 mph 20.7 mph N/A   Clear
10:54 PM 30.0 °F 21.7 °F 12.9 °F 49% 29.96 in 10.0 mi NW 9.2 mph 19.6 mph N/A   Clear
11:54 PM 28.9 °F 23.9 °F 12.9 °F 51% 29.96 in 10.0 mi NW 4.6 mph - N/A   Clear